Find Kosmos-2162

NORAD ID: 21733 Int'l Des: 1991-068 Owner: UNKSR Country: SU operational
LEOCIRCULARPOLAR

Live-Position

3D-Globus wird geladen...

Über Kosmos-2162

Beschreibung wird geladen...

Nächste Überflüge

Passes for default location (London). Set your location on the main map for personalized predictions.

Höhenverlauf

Loading altitude history...

Zweizeiliger Elementsatz

1 21733U 91068F 26106.24246844 .00000024 00000-0 76574-4 0 9998
2 21733 82.5937 19.0429 0007222 5.7078 125.6897 12.62437849592120
Epoch: 16. Apr. 2026 • Age: 13 hours

Aktueller Status

Höhe 1422.5 km
Geschwindigkeit 7.16 km/s
Subsatellitenpunkt 68.96°N, 88.72°W
Startdatum 28. Sept. 1991
Alter 34.5 years
Typ other

Technische Details

Klassifizierung Payload
Masse 225.00 kg
Trockenmasse 225.00 kg
Gesamtmasse 225.00 kg
Länge 1.60 m
Durchmesser 0.80 m
Spannweite 7.00 m
Form Cyl + Ant
Hersteller NPOPM
Bus-Typ Strela-3
Phasenstatus In Orbit
Besitzer/Staat UNKSR/SU

Most Searched